• In Belarus
  • List of Countries
  • For 7 days
  • Water Temperature
  • Satellite Maps
  • Weather Map
  • Weather Widgets
  • user-avatar
    Login

    Hourly Weather Cardrona

    Today, 23 October, Tuesday

    Time Temperature Precipitation Wind Pressure Humidity
    00:00 +7°C° 0 mm 2 mps 685 mmHg 75%
    01:00 +7°C° 0 mm 2 mps 685 mmHg 74%
    02:00 +6°C° 0 mm 2 mps 685 mmHg 73%
    03:00 +7°C° 0 mm 2 mps 685 mmHg 74%
    04:00 +7°C° 0 mm 2 mps 685 mmHg 75%
    05:00 +7°C° 0 mm 3 mps 685 mmHg 74%
    06:00 +9°C° 0 mm 3 mps 686 mmHg 71%
    07:00 +11°C° 0 mm 3 mps 686 mmHg 68%
    08:00 +14°C° 0 mm 2 mps 686 mmHg 64%
    09:00 +16°C° 0 mm 2 mps 686 mmHg 61%
    10:00 +17°C° 0 mm 2 mps 686 mmHg 58%
    11:00 +18°C° 0 mm 2 mps 687 mmHg 56%
    12:00 +18°C° 0.1 mm 2 mps 687 mmHg 57%
    13:00 +18°C° 0.1 mm 2 mps 686 mmHg 59%
    14:00 +18°C° 0.1 mm 2 mps 686 mmHg 60%
    15:00 +17°C° 0.3 mm 2 mps 686 mmHg 65%
    16:00 +16°C° 0.3 mm 2 mps 686 mmHg 69%
    17:00 +16°C° 0.3 mm 2 mps 685 mmHg 74%
    18:00 +14°C° 0.4 mm 2 mps 685 mmHg 78%
    19:00 +13°C° 0.4 mm 2 mps 685 mmHg 82%
    20:00 +12°C° 0.4 mm 2 mps 684 mmHg 85%
    21:00 +12°C° 0.1 mm 2 mps 684 mmHg 87%
    22:00 +10°C° 0.1 mm 2 mps 684 mmHg 88%
    23:00 +10°C° 0.1 mm 2 mps 683 mmHg 89%

    Tomorrow, 24 October, Wednesday

    Time Temperature Precipitation Wind Pressure Humidity
    00:00 +10°C° 0.2 mm 2 mps 683 mmHg 90%
    01:00 +10°C° 0.2 mm 3 mps 683 mmHg 90%
    02:00 +10°C° 0.2 mm 3 mps 682 mmHg 91%
    03:00 +10°C° 0.1 mm 3 mps 682 mmHg 91%
    04:00 +10°C° 0.1 mm 3 mps 682 mmHg 92%
    05:00 +10°C° 0.1 mm 3 mps 682 mmHg 93%
    06:00 +11°C° 0 mm 3 mps 682 mmHg 89%
    07:00 +12°C° 0 mm 4 mps 682 mmHg 84%
    08:00 +13°C° 0 mm 4 mps 682 mmHg 80%
    09:00 +13°C° 0 mm 4 mps 681 mmHg 77%
    10:00 +13°C° 0 mm 4 mps 681 mmHg 73%
    11:00 +14°C° 0 mm 5 mps 681 mmHg 69%
    12:00 +14°C° 0 mm 5 mps 681 mmHg 68%
    13:00 +13°C° 0 mm 5 mps 680 mmHg 66%
    14:00 +13°C° 0 mm 5 mps 680 mmHg 65%
    15:00 +12°C° 0.1 mm 5 mps 679 mmHg 68%
    16:00 +12°C° 0.1 mm 5 mps 679 mmHg 70%
    17:00 +11°C° 0.1 mm 4 mps 678 mmHg 73%
    18:00 +10°C° 0.3 mm 4 mps 678 mmHg 77%
    19:00 +9°C° 0.3 mm 3 mps 678 mmHg 81%
    20:00 +8°C° 0.3 mm 3 mps 678 mmHg 84%
    21:00 +8°C° 0.3 mm 3 mps 678 mmHg 86%
    22:00 +7°C° 0.3 mm 2 mps 678 mmHg 88%
    23:00 +7°C° 0.3 mm 2 mps 678 mmHg 90%

    Day after tomorrow, 25 October, Thursday

    Time Temperature Precipitation Wind Pressure Humidity
    00:00 +7°C° 1.1 mm 2 mps 677 mmHg 90%
    01:00 +5°C° 1.1 mm 3 mps 677 mmHg 91%
    02:00 +5°C° 1.1 mm 3 mps 677 mmHg 92%
    03:00 +4°C° 2.6 mm 3 mps 677 mmHg 93%
    04:00 +3°C° 2.6 mm 3 mps 677 mmHg 93%
    05:00 +4°C° 2.6 mm 2 mps 677 mmHg 93%
    06:00 +4°C° 1.6 mm 2 mps 677 mmHg 93%
    07:00 +4°C° 1.6 mm 2 mps 678 mmHg 92%
    08:00 +3°C° 1.6 mm 2 mps 678 mmHg 91%
    09:00 +4°C° 0.3 mm 2 mps 678 mmHg 90%
    10:00 +4°C° 0.3 mm 2 mps 678 mmHg 88%
    11:00 +5°C° 0.3 mm 2 mps 678 mmHg 86%
    12:00 +5°C° 0.1 mm 2 mps 678 mmHg 84%
    13:00 +5°C° 0.1 mm 2 mps 678 mmHg 82%
    14:00 +6°C° 0.1 mm 2 mps 678 mmHg 79%
    15:00 +5°C° 0.1 mm 2 mps 678 mmHg 80%
    16:00 +5°C° 0.1 mm 2 mps 678 mmHg 81%
    17:00 +5°C° 0.1 mm 2 mps 678 mmHg 82%
    18:00 +4°C° 0 mm 2 mps 678 mmHg 85%
    19:00 +3°C° 0 mm 2 mps 678 mmHg 89%
    20:00 +3°C° 0 mm 1 mps 678 mmHg 93%
    21:00 +3°C° 0 mm 1 mps 678 mmHg 93%
    22:00 +3°C° 0 mm 1 mps 678 mmHg 94%
    23:00 +2°C° 0 mm 1 mps 678 mmHg 95%

    26 October, Friday

    Time Temperature Precipitation Wind Pressure Humidity
    00:00 +2°C° 0 mm 1 mps 678 mmHg 95%
    01:00 +2°C° 0 mm 1 mps 677 mmHg 94%
    02:00 +2°C° 0 mm 1 mps 677 mmHg 94%
    03:00 +2°C° 0 mm 1 mps 676 mmHg 94%
    04:00 +2°C° 0 mm 1 mps 676 mmHg 94%
    05:00 +2°C° 0 mm 1 mps 676 mmHg 93%
    06:00 +4°C° 0 mm 1 mps 676 mmHg 87%
    07:00 +5°C° 0 mm 2 mps 677 mmHg 80%
    08:00 +7°C° 0 mm 2 mps 677 mmHg 74%
    09:00 +8°C° 0 mm 2 mps 677 mmHg 69%
    10:00 +9°C° 0 mm 2 mps 676 mmHg 65%
    11:00 +10°C° 0 mm 2 mps 676 mmHg 61%
    12:00 +10°C° 0 mm 2 mps 676 mmHg 59%
    13:00 +12°C° 0 mm 2 mps 676 mmHg 58%
    14:00 +12°C° 0 mm 2 mps 675 mmHg 56%
    15:00 +10°C° 0 mm 2 mps 675 mmHg 60%
    16:00 +10°C° 0 mm 2 mps 675 mmHg 64%
    17:00 +9°C° 0 mm 2 mps 674 mmHg 68%
    18:00 +7°C° 0 mm 2 mps 674 mmHg 73%
    19:00 +6°C° 0 mm 2 mps 674 mmHg 79%
    20:00 +4°C° 0 mm 2 mps 674 mmHg 85%
    21:00 +3°C° 0 mm 2 mps 673 mmHg 85%
    22:00 +2°C° 0 mm 3 mps 673 mmHg 85%
    23:00 +1°C° 0 mm 3 mps 672 mmHg 85%

    27 October, Saturday

    Time Temperature Precipitation Wind Pressure Humidity
    00:00 +1°C° 0 mm 3 mps 672 mmHg 85%
    01:00 +1°C° 0 mm 3 mps 671 mmHg 85%
    02:00 0°C° 0 mm 3 mps 670 mmHg 85%
    03:00 0°C° 0.2 mm 3 mps 670 mmHg 85%
    04:00 0°C° 0.2 mm 3 mps 670 mmHg 84%
    05:00 +1°C° 0.2 mm 3 mps 670 mmHg 83%
    06:00 +1°C° 0.5 mm 3 mps 670 mmHg 82%
    07:00 +2°C° 0.5 mm 3 mps 670 mmHg 81%
    08:00 +4°C° 0.5 mm 2 mps 670 mmHg 80%
    09:00 +4°C° 0.1 mm 3 mps 670 mmHg 76%
    10:00 +5°C° 0.1 mm 3 mps 670 mmHg 72%
    11:00 +7°C° 0.1 mm 4 mps 670 mmHg 67%
    12:00 +7°C° 0.1 mm 4 mps 670 mmHg 66%
    13:00 +7°C° 0.1 mm 4 mps 670 mmHg 65%
    14:00 +7°C° 0.1 mm 5 mps 670 mmHg 64%
    15:00 +7°C° 0 mm 4 mps 670 mmHg 66%
    16:00 +6°C° 0 mm 4 mps 670 mmHg 68%
    17:00 +7°C° 0 mm 3 mps 670 mmHg 70%
    18:00 +4°C° 0 mm 3 mps 670 mmHg 75%
    19:00 +4°C° 0 mm 2 mps 670 mmHg 81%
    20:00 +2°C° 0 mm 2 mps 670 mmHg 87%
    21:00 +2°C° 0 mm 2 mps 670 mmHg 88%
    22:00 +2°C° 0 mm 2 mps 670 mmHg 89%
    23:00 +1°C° 0 mm 2 mps 670 mmHg 90%

    28 October, Sunday

    Time Temperature Precipitation Wind Pressure Humidity
    00:00 +2°C° 0 mm 2 mps 669 mmHg 89%
    01:00 +2°C° 0 mm 2 mps 669 mmHg 89%
    02:00 +2°C° 0 mm 2 mps 669 mmHg 88%
    03:00 +2°C° 0.1 mm 2 mps 669 mmHg 88%
    04:00 +2°C° 0.1 mm 2 mps 669 mmHg 88%
    05:00 +2°C° 0.1 mm 2 mps 669 mmHg 88%
    06:00 +3°C° 0 mm 2 mps 669 mmHg 83%
    07:00 +5°C° 0 mm 2 mps 670 mmHg 77%
    08:00 +6°C° 0 mm 2 mps 670 mmHg 71%
    09:00 +7°C° 0.1 mm 2 mps 670 mmHg 69%
    10:00 +8°C° 0.1 mm 2 mps 670 mmHg 67%
    11:00 +9°C° 0.1 mm 2 mps 669 mmHg 64%
    12:00 +9°C° 0.3 mm 2 mps 669 mmHg 65%
    13:00 +9°C° 0.3 mm 2 mps 669 mmHg 65%
    14:00 +9°C° 0.3 mm 2 mps 669 mmHg 65%
    15:00 +9°C° 0.3 mm 2 mps 669 mmHg 69%
    16:00 +8°C° 0.3 mm 2 mps 668 mmHg 72%
    17:00 +8°C° 0.3 mm 2 mps 668 mmHg 75%
    18:00 +8°C° 0.2 mm 1 mps 668 mmHg 80%
    19:00 +7°C° 0.2 mm 1 mps 668 mmHg 84%
    20:00 +6°C° 0.2 mm 1 mps 668 mmHg 88%
    21:00 +5°C° 0.3 mm 1 mps 668 mmHg 89%
    22:00 +5°C° 0.3 mm 1 mps 668 mmHg 90%
    23:00 +4°C° 0.3 mm 0 mps 667 mmHg 91%

    29 October, Monday

    Time Temperature Precipitation Wind Pressure Humidity
    00:00 +3°C° 0.3 mm 0 mps 667 mmHg 91%
    01:00 +3°C° 0.3 mm 0 mps 667 mmHg 92%
    02:00 +3°C° 0.3 mm 0 mps 666 mmHg 92%
    03:00 +3°C° 0.2 mm 0 mps 667 mmHg 92%
    04:00 +3°C° 0.2 mm 0 mps 667 mmHg 92%
    05:00 +4°C° 0.2 mm 1 mps 667 mmHg 93%
    06:00 +5°C° 0.3 mm 1 mps 667 mmHg 89%
    07:00 +6°C° 0.3 mm 1 mps 668 mmHg 86%
    08:00 +7°C° 0.3 mm 1 mps 668 mmHg 82%
    09:00 +8°C° 0.3 mm 1 mps 668 mmHg 80%
    10:00 +9°C° 0.3 mm 1 mps 668 mmHg 77%
    11:00 +10°C° 0.3 mm 1 mps 668 mmHg 75%
    12:00 +9°C° 0.6 mm 2 mps 668 mmHg 77%
    13:00 +8°C° 0.6 mm 2 mps 667 mmHg 78%
    14:00 +8°C° 0.6 mm 3 mps 667 mmHg 80%
    15:00 +7°C° 1.2 mm 3 mps 667 mmHg 83%
    16:00 +5°C° 1.2 mm 4 mps 667 mmHg 87%
    17:00 +4°C° 1.2 mm 4 mps 667 mmHg 91%
    18:00 +3°C° 0.7 mm 4 mps 668 mmHg 91%
    19:00 +1°C° 0.7 mm 4 mps 668 mmHg 91%
    20:00 0°C° 0.7 mm 4 mps 668 mmHg 91%
    21:00 0°C° 0.2 mm 4 mps 669 mmHg 90%
    22:00 0°C° 0.2 mm 3 mps 669 mmHg 89%
    23:00 0°C° 0.2 mm 3 mps 669 mmHg 88%
    Show more